Location: Aulnoy
(48.8410°N, 3.0967°E)
Time: 12:33:13
(UTC+00:00)

Cosmos 44 Rocket - Pass Details

Date: 09 February 2023
Orbit: 646 x 741 km, 65.1° (Epoch: 21 March)

Event Time Altitude Azimuth Distance (km) Brightness Sun altitude
Rises 18:49:16 0° 240° (WSW) 2,969 7.6 -18.7°
Reaches altitude 10° 18:51:40 10° 248° (WSW) 2,070 6.8 -19.1°
Maximum altitude 18:56:05 40° 318° (NW) 986 4.4 -19.8°
Enters shadow 18:59:39 15° 23° (NNE) 1,782 5.2 -20.4°
